Location: 98498
(47.1644°N, 122.5620°W)
Time: 19:55:17
(UTC-07:00)

ISS - Visible Passes

Search period start: 17 July 2018 00:00
Search period end: 27 July 2018 00:00
Orbit: 402 x 408 km, 51.6° (Epoch: 18 July)

Date Brightness Start Highest point End Pass type
(mag) Time Alt. Az. Time Alt. Az. Time Alt. Az.
17 Jul -1.9 00:24:14 22° ENE 00:24:14 22° ENE 00:25:32 10° ENE visible
17 Jul -2.4 01:56:50 18° WNW 01:58:56 39° N 02:02:04 10° ENE visible
17 Jul -2.5 03:32:41 10° WNW 03:35:51 42° N 03:39:01 10° E visible
17 Jul -1.3 23:33:03 12° ENE 23:33:03 12° ENE 23:33:23 10° ENE visible
18 Jul -2.9 01:05:37 32° WNW 01:06:44 48° NNW 01:09:56 10° ENE visible
18 Jul -2.2 02:40:32 10° WNW 02:43:38 37° N 02:46:44 10° ENE visible
18 Jul -3.8 04:17:05 10° WNW 04:20:24 86° NNE 04:23:41 10° ESE visible
18 Jul -2.9 22:35:27 10° SSW 22:38:15 26° SE 22:41:04 10° E visible
19 Jul -3.5 00:11:17 10° WSW 00:14:33 65° NNW 00:17:50 10° ENE visible
19 Jul -2.2 01:48:18 10° WNW 01:51:23 35° N 01:54:28 10° ENE visible
19 Jul -3.2 03:24:59 10° WNW 03:28:15 59° NNE 03:31:31 10° E visible
19 Jul -2.2 21:44:16 10° S 21:46:20 16° SE 21:48:25 10° E visible
19 Jul -4.0 23:19:08 10° WSW 23:22:24 86° SSE 23:25:43 10° ENE visible
20 Jul -2.3 00:56:01 10° WNW 00:59:08 38° N 01:02:15 10° ENE visible
20 Jul -2.7 02:32:51 10° WNW 02:36:03 45° NNE 02:39:14 10° E visible
20 Jul -3.7 04:09:23 10° WNW 04:12:36 50° SSW 04:15:48 10° SE visible
20 Jul -3.8 22:27:07 10° SW 22:30:19 53° SSE 22:33:32 10° ENE visible
21 Jul -2.6 00:03:43 10° W 00:06:53 44° NNW 00:10:04 10° ENE visible
21 Jul -2.3 01:40:41 10° WNW 01:43:49 38° N 01:46:55 10° ENE visible
21 Jul -4.0 03:17:13 10° WNW 03:20:31 82° SSW 03:23:48 10° ESE visible
21 Jul -2.1 04:54:36 10° W 04:56:34 15° SW 04:58:32 10° S visible
21 Jul -3.1 21:35:20 10° SSW 21:38:17 31° SE 21:41:15 10° ENE visible
21 Jul -3.2 23:11:25 10° W 23:14:39 57° NNW 23:17:55 10° ENE visible
22 Jul -2.2 00:48:27 10° WNW 00:51:31 36° N 00:54:37 10° ENE visible
22 Jul -3.5 02:25:04 10° WNW 02:28:21 67° NNE 02:31:38 10° ESE visible
22 Jul -2.8 04:01:52 10° W 04:04:38 25° SW 04:07:23 10° SSE visible
22 Jul -3.8 22:19:11 10° WSW 22:22:28 82° NNW 22:25:46 10° ENE visible
22 Jul -2.2 23:56:08 10° WNW 23:59:14 36° N 00:02:20 10° ENE visible
23 Jul -2.9 01:32:54 10° WNW 01:35:52 48° N 01:35:52 48° N visible
23 Jul -3.8 21:27:05 10° SW 21:30:19 64° SSE 21:33:34 10° ENE visible
23 Jul -2.5 23:03:48 10° W 23:06:56 41° N 23:10:05 10° ENE visible
24 Jul -2.5 00:40:43 10° WNW 00:43:51 40° N 00:44:34 34° NE visible
24 Jul -2.9 22:11:27 10° W 22:14:40 51° NNW 22:17:53 10° ENE visible
24 Jul -2.3 23:48:28 10° WNW 23:51:33 36° N 23:53:39 17° ENE visible
25 Jul -1.7 01:25:02 10° WNW 01:26:16 21° WNW 01:26:16 21° WNW visible
25 Jul -2.2 22:56:08 10° WNW 22:59:13 36° N 23:02:18 10° ENE visible
26 Jul -2.8 00:32:52 10° WNW 00:35:30 46° NNW 00:35:30 46° NNW visible
26 Jul -2.4 22:03:46 10° W 22:06:53 39° N 22:10:00 10° ENE visible
26 Jul -2.7 23:40:38 10° WNW 23:43:48 43° NNE 23:44:49 32° ENE visible
